TimeMDT,TemperatureF,Dew PointF,Humidity,Sea Level PressureIn,VisibilityMPH,Wind Direction,Wind SpeedMPH,Gust SpeedMPH,PrecipitationIn,Events,Conditions,WindDirDegrees,DateUTC
12:15 AM,35.6,3.6,26,30.17,10.0,ENE,8.1,-,N/A,,Overcast,60,2013-03-26 06:15:00
12:35 AM,34.9,4.5,28,30.17,10.0,ENE,3.5,-,N/A,,Overcast,70,2013-03-26 06:35:00
12:55 AM,33.8,4.5,29,30.16,10.0,NE,5.8,-,N/A,,Overcast,50,2013-03-26 06:55:00
1:15 AM,33.1,4.3,30,30.15,10.0,ENE,5.8,-,N/A,,Mostly Cloudy,70,2013-03-26 07:15:00
1:35 AM,32.0,5.0,32,30.15,10.0,East,8.1,-,N/A,,Clear,90,2013-03-26 07:35:00
1:55 AM,32.0,4.8,32,30.15,10.0,ENE,6.9,-,N/A,,Clear,70,2013-03-26 07:55:00
2:15 AM,33.1,5.0,31,30.15,10.0,ENE,6.9,-,N/A,,Mostly Cloudy,60,2013-03-26 08:15:00
2:35 AM,33.3,5.5,31,30.15,10.0,ENE,6.9,-,N/A,,Overcast,70,2013-03-26 08:35:00
2:55 AM,33.1,5.9,32,30.14,10.0,ENE,6.9,-,N/A,,Mostly Cloudy,70,2013-03-26 08:55:00
3:15 AM,32.0,5.7,33,30.14,10.0,ENE,9.2,-,N/A,,Scattered Clouds,60,2013-03-26 09:15:00
3:35 AM,30.7,5.7,35,30.14,10.0,NNE,6.9,-,N/A,,Clear,30,2013-03-26 09:35:00
3:55 AM,31.1,5.4,34,30.13,10.0,NE,8.1,-,N/A,,Clear,50,2013-03-26 09:55:00
4:15 AM,31.6,5.9,34,30.13,10.0,NE,8.1,-,N/A,,Clear,50,2013-03-26 10:15:00
4:35 AM,31.6,6.3,34,30.13,10.0,East,6.9,-,N/A,,Clear,80,2013-03-26 10:35:00
4:55 AM,29.1,6.1,38,30.13,10.0,East,4.6,-,N/A,,Clear,90,2013-03-26 10:55:00
5:15 AM,28.8,6.6,39,30.12,10.0,East,6.9,-,N/A,,Scattered Clouds,80,2013-03-26 11:15:00
5:35 AM,28.2,7.3,41,30.13,10.0,Calm,Calm,-,N/A,,Mostly Cloudy,0,2013-03-26 11:35:00
5:55 AM,28.8,8.1,42,30.13,10.0,Calm,Calm,-,N/A,,Mostly Cloudy,0,2013-03-26 11:55:00
6:15 AM,28.9,8.6,42,30.13,10.0,Calm,Calm,-,N/A,,Mostly Cloudy,0,2013-03-26 12:15:00
6:35 AM,29.3,9.7,44,30.13,10.0,ENE,3.5,-,N/A,,Overcast,60,2013-03-26 12:35:00
6:55 AM,28.9,7.7,41,30.13,10.0,ENE,4.6,-,N/A,,Overcast,60,2013-03-26 12:55:00
7:15 AM,28.8,9.0,43,30.13,10.0,NE,6.9,-,N/A,,Scattered Clouds,40,2013-03-26 13:15:00
7:35 AM,30.7,8.1,39,30.13,10.0,NE,6.9,-,N/A,,Scattered Clouds,40,2013-03-26 13:35:00
7:55 AM,31.8,8.2,37,30.13,10.0,ENE,9.2,-,N/A,,Scattered Clouds,60,2013-03-26 13:55:00
8:15 AM,32.7,8.4,36,30.13,10.0,Calm,Calm,-,N/A,,Clear,0,2013-03-26 14:15:00
8:35 AM,32.0,11.1,42,30.13,10.0,Calm,Calm,-,N/A,,Clear,0,2013-03-26 14:35:00
8:55 AM,34.7,9.5,35,30.13,10.0,Calm,Calm,-,N/A,,Scattered Clouds,0,2013-03-26 14:55:00
9:15 AM,36.9,9.7,33,30.12,10.0,Calm,Calm,-,N/A,,Clear,0,2013-03-26 15:15:00
9:35 AM,39.2,10.2,30,30.11,10.0,Calm,Calm,-,N/A,,Scattered Clouds,0,2013-03-26 15:35:00
9:55 AM,40.6,9.7,28,30.11,10.0,Calm,Calm,-,N/A,,Scattered Clouds,0,2013-03-26 15:55:00
10:15 AM,41.7,9.9,27,30.10,10.0,Calm,Calm,-,N/A,,Scattered Clouds,0,2013-03-26 16:15:00
10:35 AM,43.0,10.6,27,30.09,10.0,Calm,Calm,-,N/A,,Scattered Clouds,0,2013-03-26 16:35:00
10:55 AM,45.1,11.5,26,30.07,10.0,East,3.5,-,N/A,,Scattered Clouds,80,2013-03-26 16:55:00
11:15 AM,47.5,12.6,25,30.07,10.0,ENE,3.5,-,N/A,,Clear,60,2013-03-26 17:15:00
11:35 AM,48.9,13.1,24,30.06,10.0,Calm,Calm,-,N/A,,Clear,0,2013-03-26 17:35:00
11:55 AM,50.9,13.6,23,30.04,10.0,Calm,Calm,-,N/A,,Clear,0,2013-03-26 17:55:00
12:15 PM,53.8,14.5,21,30.03,10.0,ENE,4.6,-,N/A,,Clear,70,2013-03-26 18:15:00
12:35 PM,56.1,14.4,19,30.02,10.0,Calm,Calm,-,N/A,,Clear,0,2013-03-26 18:35:00
12:55 PM,57.4,12.6,17,30.00,10.0,ENE,5.8,-,N/A,,Clear,60,2013-03-26 18:55:00
1:15 PM,57.6,13.1,17,30.00,10.0,Calm,Calm,-,N/A,,Clear,0,2013-03-26 19:15:00
1:35 PM,58.1,13.3,17,29.99,10.0,Calm,Calm,-,N/A,,Clear,0,2013-03-26 19:35:00
1:55 PM,59.9,13.6,16,29.98,10.0,Calm,Calm,-,N/A,,Clear,0,2013-03-26 19:55:00
2:15 PM,61.2,13.6,16,29.96,10.0,Calm,Calm,-,N/A,,Clear,0,2013-03-26 20:15:00
2:35 PM,62.8,12.9,14,29.95,10.0,SSW,6.9,-,N/A,,Clear,210,2013-03-26 20:35:00
2:55 PM,63.3,13.1,14,29.94,10.0,SW,5.8,-,N/A,,Clear,230,2013-03-26 20:55:00
3:15 PM,64.2,12.9,14,29.93,10.0,WNW,9.2,-,N/A,,Clear,290,2013-03-26 21:15:00
3:35 PM,63.5,12.0,13,29.92,10.0,WNW,11.5,-,N/A,,Scattered Clouds,290,2013-03-26 21:35:00
3:55 PM,63.7,12.0,13,29.91,10.0,West,6.9,-,N/A,,Mostly Cloudy,270,2013-03-26 21:55:00
4:15 PM,64.8,12.4,13,29.90,10.0,WSW,17.3,24.2,N/A,,Mostly Cloudy,250,2013-03-26 22:15:00
4:35 PM,64.0,12.6,13,29.90,10.0,West,12.7,19.6,N/A,,Mostly Cloudy,260,2013-03-26 22:35:00
4:55 PM,64.0,12.7,14,29.89,10.0,WSW,13.8,18.4,N/A,,Overcast,250,2013-03-26 22:55:00
5:15 PM,63.7,12.6,14,29.89,10.0,WSW,10.4,-,N/A,,Overcast,240,2013-03-26 23:15:00
5:35 PM,63.7,11.8,13,29.89,10.0,SW,20.7,26.5,N/A,,Overcast,230,2013-03-26 23:35:00
5:55 PM,63.0,11.5,13,29.88,10.0,SW,18.4,-,N/A,,Mostly Cloudy,230,2013-03-26 23:55:00
6:15 PM,63.3,12.2,14,29.89,10.0,West,9.2,17.3,N/A,,Mostly Cloudy,270,2013-03-27 00:15:00
6:35 PM,62.6,12.4,14,29.89,10.0,West,11.5,18.4,N/A,,Mostly Cloudy,260,2013-03-27 00:35:00
6:55 PM,61.5,12.4,15,29.90,10.0,WSW,10.4,-,N/A,,Mostly Cloudy,250,2013-03-27 00:55:00
7:15 PM,61.7,12.2,14,29.90,10.0,WSW,4.6,-,N/A,,Overcast,250,2013-03-27 01:15:00